sat.trackr.live / text

‹ back to catalog

STARLINK-11400 [DTC]

NORAD 63017 · 2025-032N

PAYLOAD ACTIVE UNKNOWN

§ Identity

Operator
Country
US
Launch date
2025-02-15
Launch site
AFETR
Launch vehicle
Mass (kg)
RCS (m²)

Purposes: comms

External: N2YO · Heavens-Above · Gunter

§ Orbital elements

Epoch: 2026-05-25T03:10:40.904832Z

Period
91.67 min
Inclination
42.9988°
Eccentricity
0.0001073
Mean motion
15.70862538 rev/d
Perigee alt
355.7 km
Apogee alt
357.2 km
Semi-major
6,734.6 km
B*
1.0169e-3
RAAN
94.7986°
Arg perigee
218.6909°
Mean anomaly
141.3881°
Rev number
7,423

§ Raw data

STARLINK-11400 [DTC]1 63017U 25032N   26145.13241788  .00132248  00000+0  10169-2 0  99992 63017  42.9988  94.7986 0001073 218.6909 141.3881 15.70862538 74235

JSON: /api/v1/satellites/63017 · /tle

For live sub-satellite position, see the globe view (requires WebGL).

§ Visibility from observer

Set your observer location to see the next 7 days of passes ≥ 10°. The values pass through the URL so the page stays shareable.

No JS? Fill the form by hand. The geolocation button needs JavaScript.